Simultaneous Nadir Overpasses (SNOs) Predictions

Prediction of SNOs between METOP-B and TERRA Satellite Orbit:

Table of predicted SNOs for the next 14.0 days since TLE Epoch: 3/15/2025
Index Date (METOP-B) Time (METOP-B) Lat,Lon (METOP-B) SZA (METOP-B ) Date (TERRA) Time (TERRA) Lat,Lon (TERRA) SZA (TERRA ) Distance(km) Time Diff (sec)
1 03/17/2025 13:08:53 -78.75, 169.55 100.16 03/17/2025 13:09:45 -78.74, 169.47 100.17 2.04 52
2 03/17/2025 13:59:25 79.07, -21.06 80.19 03/17/2025 13:58:57 79.06, -21.11 80.18 1.15 28
3 03/20/2025 02:48:34 78.82, 145.01 78.90 03/20/2025 02:49:11 78.81, 144.92 78.90 1.89 37
4 03/20/2025 03:39:08 -79.09, -45.91 100.81 03/20/2025 03:38:24 -79.09, -45.89 100.82 0.36 44
5 03/22/2025 16:28:18 -78.79, 119.86 102.15 03/22/2025 16:28:38 -78.79, 119.90 102.14 1.08 20
6 03/22/2025 17:18:50 79.10, -70.76 78.20 03/22/2025 17:17:50 79.11, -70.67 78.20 2.15 60
7 03/25/2025 06:07:57 78.90, 95.62 76.98 03/25/2025 06:08:01 78.90, 95.56 76.97 1.55 4
8 03/25/2025 06:56:16 -81.37, -48.12 96.96 03/25/2025 06:55:03 -82.02, -47.83 96.59 72.33 73
9 03/27/2025 18:57:10 78.45, -99.38 75.49 03/27/2025 18:58:16 78.46, -99.27 75.50 2.70 66



Historial Predications of SNOs between METOP-B and TERRA
